Terrace, British Columbia

5:22 AM PDT on June 29, 2017 (GMT -0700)
Terrace

Weather History for CYXT - March, 2013

Change the Weather History Date:

Saturday, March 23, 2013

  Actual Average Record
Temperature  
Mean Temperature 34 °F -  
Max Temperature 45 °F 48 °F 53 °F (1998)
Min Temperature 22 °F 33 °F 21 °F (2012)
Degree Days  
Heating Degree Days 32    
Moisture  
Dew Point 22 °F    
Average Humidity 68    
Maximum Humidity 93    
Minimum Humidity 37    
Precipitation  
Precipitation 0.00 in 0.09 in - ()
Sea Level Pressure  
Sea Level Pressure 30.31 in    
Wind  
Wind Speed 3 mph ()    
Max Wind Speed 8 mph    
Max Gust Speed -    
Visibility 17.8 miles    
Events Fog    
Averages and records for this station are not official NWS values.
T = Trace of Precipitation, MM = Missing Value Source: Averaged Metar Reports

Daily Weather History Graph

Daily Weather History Graph

Search for Another Location

Airport or City:

Trip Planner

Search our weather history database for the weather conditions in past years. The results will help you decide how hot, cold, wet, or windy it might be!

Date:

Astronomy

Mar. 23, 2013 Rise Set
Actual Time 7:28 AM PDT 7:54 PM PDT
Civil Twilight 6:52 AM PDT 8:30 PM PDT
Nautical Twilight 6:09 AM PDT 9:13 PM PDT
Astronomical Twilight 5:24 AM PDT 9:59 PM PDT
Moon 4:00 PM PDT (3/23) 5:39 AM PDT (3/23)
Length of Visible Light 13h 38m
Length of Day
12h 26m
Waxing Gibbous, 86% of the Moon is Illuminated
Mar 23
Waxing Gibbous
Mar 27
Full
Apr 2
Last Quarter
Apr 10
New
Apr 18
First Quarter

Hourly Weather History & Observations

Time (PDT) Temp. Windchill Dew Point Humidity Pressure Visibility Wind Dir Wind Speed Gust Speed Precip Events Conditions
12:00 AM 26.6 °F 22.6 °F 24.8 °F 93% 30.35 in 15.0 mi NNE 3.5 mph - N/A   Mostly Cloudy
1:00 AM 26.6 °F - 24.8 °F 93% 30.35 in 15.0 mi Calm Calm - N/A   Mostly Cloudy
3:00 AM 26.6 °F 22.6 °F 24.8 °F 93% 30.35 in 15.0 mi NE 3.5 mph - N/A   Mostly Cloudy
4:00 AM 26.6 °F - 24.8 °F 93% 30.34 in 15.0 mi Calm Calm - N/A   Mostly Cloudy
5:00 AM 25 °F - 22 °F 86% 30.35 in 15 mi NNE 3.5 mph - -   Partly Cloudy
5:00 AM 24.8 °F - 23.0 °F 93% 30.35 in 15.0 mi NE 2.3 mph - N/A   Scattered Clouds
6:00 AM 24.8 °F 17.9 °F 23.0 °F 93% 30.35 in 15.0 mi North 5.8 mph - N/A   Scattered Clouds
7:00 AM 23.0 °F - 21.2 °F 93% 30.35 in 20.0 mi Calm Calm - N/A   Mostly Cloudy
8:00 AM 24.8 °F - 23.0 °F 93% 30.36 in 20.0 mi Calm Calm - N/A Fog Mostly Cloudy
9:00 AM 26.6 °F - 23.0 °F 86% 30.36 in 20.0 mi Calm Calm - N/A   Mostly Cloudy
10:00 AM 30.2 °F 25.4 °F 23.0 °F 75% 30.36 in 20.0 mi North 4.6 mph - N/A   Scattered Clouds
11:00 AM 32 °F - 22 °F 56% 30.36 in 19 mi NNW 3.5 mph - -   Scattered Clouds
11:00 AM 32.0 °F - 23.0 °F 69% 30.36 in 20.0 mi NNW 2.3 mph - N/A   Partly Cloudy
12:00 PM 35.6 °F 32.8 °F 21.2 °F 56% 30.35 in 20.0 mi NNW 3.5 mph - N/A   Partly Cloudy
1:00 PM 39.2 °F - 21.2 °F 49% 30.32 in 20.0 mi Variable 2.3 mph - N/A   Scattered Clouds
2:00 PM 42.8 °F 38.0 °F 19.4 °F 39% 30.31 in 20.0 mi SSW 8.1 mph - N/A   Scattered Clouds
3:00 PM 44.6 °F 40.2 °F 19.4 °F 37% 30.29 in 20.0 mi SW 8.1 mph - N/A   Scattered Clouds
4:00 PM 44.6 °F 41.4 °F 19.4 °F 37% 30.28 in 20.0 mi SSE 5.8 mph - N/A   Mostly Cloudy
5:00 PM 44.6 °F 40.2 °F 19.4 °F 37% 30.27 in 20.0 mi ESE 8.1 mph - N/A   Mostly Cloudy
6:00 PM 42.8 °F 39.3 °F 21.2 °F 42% 30.26 in 20.0 mi SW 5.8 mph - N/A   Mostly Cloudy
7:00 PM 41.0 °F 38.0 °F 21.2 °F 45% 30.25 in 20.0 mi SW 4.6 mph - N/A   Mostly Cloudy
8:00 PM 35.6 °F 31.7 °F 21.2 °F 56% 30.25 in 20.0 mi West 4.6 mph - N/A   Mostly Cloudy
9:00 PM 33.8 °F - 23.0 °F 65% 30.25 in 15.0 mi Calm Calm - N/A   Mostly Cloudy
10:00 PM 35.6 °F 29.9 °F 24.8 °F 65% 30.25 in 15.0 mi NNE 6.9 mph - N/A   Mostly Cloudy
11:00 PM 34 °F - 26 °F 61% 30.25 in 15 mi NNE 4.6 mph - -   Partly Cloudy
11:00 PM 33.8 °F 30.8 °F 24.8 °F 70% 30.25 in 15.0 mi NNE 3.5 mph - N/A   Mostly Cloudy